Airfield :
LOGIN :

Register | Disclaimer

   EN    FR    IT 

 










Legend :    VFR   Marginal VFR   IFR   Intensive IFR   Very Intensive IFR
Visi :
Ceiling :
>= 8 km
>= 3000ft
5 to 8 km
1000 to 3000 ft
1500m to 5 km
500 to 1000 ft
800 to 1500m
200 to 500 ft
< 800m
< 200 ft
Symbols :   Thunderstorms  Fog  Heavy snow  Heavy precipitations  Wind > 20 kt
SIGMETs :     Misc.  Thunderstorms  Icing  Turbulence  Mountain Waves  Volcanic Ashes







- Airport Elevation : 1947 ft
- IATA code : OBF


EDMO - Oberpfaffenhofen

EXPIRED METARs :
  • 201920Z 04003KT CAVOK M03/M03 Q1007
  • 201850Z 15003KT CAVOK M02/M03 Q1007

TAF TAF EDMO
Valid from the 20 at 18:00 until the 21 at 03:00 UTC


201700Z 2018/2103 06005KT CAVOK
BECMG 2020/2022 1200 BCFG
BECMG 2022/2024 0700 FZFG VV001
BECMG 2100/2102 2000 BR OVC003
No reported NOTAMs for that airfield.



MET'MAP, your aeronautical weather chart ! - Copyright ORBIFLY December 2007 - Disclaimer

ORBIFLY MET'MAP TEAM :

Programming & Development : Alexandra Zaïnal
Concept & Development : Baudouin d'Aumeries
Co-Development & Prog : Marc-Olivier Méhu
Technical & hardware support : Manuel Goepfert

Contact : metmap@orbifly.com




SOURCES & CREDITS :

   NOAA